Powrót do katalogu

ATLAS CENTAUR R/B

AktywnyUNKNOWN
NORAD 13007·ROCKET BODY·🇺🇸 United States

Wystrzelony Dec 15, 1981 z Cape Canaveral Space Force Station

Loading…

Następne Przeloty (najbliższe 24 godziny)

TLE

ŚwieżeSource: Space-Track

Epoka: Sep 14, 2026, 06:00 UTC

1 13007U 81119B   26257.25043743  .00018988 -20193-5  67083-3 0  9993
2 13007  23.5143 217.0182 2467641 114.4506 273.2103 10.44760266198847

Śledź ATLAS CENTAUR R/B w czasie rzeczywistym z AllMySat

Download on the App Store